RH
35 35 33 31 30 28 25 23 24 26 27 27 28 28 28 30 33 35 37 38 40 40 40 40 40 40 39 39 38 38 36 34 32 32 34 36 37 38 38 39 42 45 47 49 50 49 51 53 53 56 57 56 57 56 51 51 55 57 55 53 51 51 51 51 51 50 49 49 51 51 48 45 42 40 40 42 42 41 40 39 38 36 34 33 34
36 37 36 34 32 29 26 23 22 23 25 27 27 28 30 32 34 35 36 39 40 39 39 39 39 38 37 37 36 36 36 35 33 32 32 34 37 39 38 37 39 42 46 49 49 46 46 50 54 55 55 53 53 54 51 52 54 53 53 53 53 53 52 52 53 56 55 55 56 55 53 51 48 43 42 44 46 47 46 44 42 40 39 39 39
37 38 38 37 34 32 30 25 22 23 25 28 30 30 31 32 34 35 37 39 40 39 38 39 39 39 39 40 39 39 39 38 36 33 32 32 35 37 38 38 38 40 43 47 47 45 41 43 49 52 52 51 51 50 49 52 54 54 54 54 53 53 52 52 55 58 59 59 58 58 57 57 55 50 46 45 46 49 49 47 45 44 45 44 43
37 38 39 39 37 34 32 27 24 24 26 29 31 31 32 34 36 37 39 40 39 39 39 41 42 43 43 43 44 44 43 41 39 36 34 32 33 35 36 38 38 39 43 45 46 45 39 38 45 49 51 52 52 50 49 51 55 58 59 57 55 53 52 53 55 58 59 60 59 60 60 61 60 56 51 47 44 45 44 42 40 41 41 42 41
36 38 40 40 39 37 33 30 27 25 27 30 31 32 33 36 37 38 39 40 39 40 42 44 45 45 46 47 47 48 47 46 44 41 37 33 32 33 35 38 41 43 45 46 47 46 40 37 44 49 51 54 55 52 49 50 56 61 64 63 58 54 55 56 58 59 61 62 62 63 64 65 64 60 53 48 44 40 37 36 36 38 38 39 40
36 38 39 41 41 38 35 32 31 28 29 31 31 32 34 36 37 38 40 41 41 42 44 45 46 46 48 50 50 51 51 51 51 48 43 38 34 34 37 42 47 46 45 46 46 44 39 38 45 50 52 56 58 55 49 51 58 64 68 68 62 57 58 60 59 61 62 63 63 63 65 66 66 60 50 45 42 39 36 36 36 37 37 38 38
37 37 39 40 40 38 36 33 32 31 30 31 31 33 35 36 38 39 41 42 43 43 44 46 47 48 51 52 53 53 54 54 56 54 51 45 42 43 46 50 52 48 44 44 42 38 36 40 47 51 55 59 61 59 55 58 66 69 72 72 65 60 60 61 60 61 62 64 64 64 65 66 66 59 48 42 41 39 37 35 34 36 36 36 35
39 39 39 39 39 37 35 33 32 31 31 31 32 34 35 37 39 40 41 43 44 45 46 47 49 51 53 54 55 57 56 57 57 58 58 54 51 53 53 54 56 49 43 42 38 32 34 44 50 54 59 63 63 63 64 66 69 71 74 74 68 62 61 61 61 62 63 64 65 65 65 66 65 58 46 39 38 38 38 37 35 34 35 35 35
41 41 39 39 38 35 33 32 31 32 33 34 34 35 36 38 40 41 43 44 45 47 48 49 51 53 54 56 58 59 58 56 55 57 60 59 57 55 52 52 55 49 42 41 37 33 38 48 53 58 63 64 63 67 71 68 64 65 71 73 68 63 61 61 61 62 62 64 65 66 67 67 63 55 43 36 36 38 40 39 37 37 37 36 35
41 42 40 39 38 34 32 32 31 32 34 36 35 36 37 39 41 43 44 45 46 49 50 51 52 53 55 58 60 59 56 55 53 55 58 58 56 54 50 48 51 49 45 44 41 39 44 50 56 60 61 60 64 73 73 66 62 66 71 72 68 64 63 62 62 63 63 65 67 68 68 65 60 52 43 38 39 43 44 42 39 39 39 38 36
40 42 41 40 37 35 32 31 31 33 34 35 35 36 39 41 44 45 45 46 48 50 51 52 52 54 57 59 58 56 55 55 56 56 56 55 54 55 52 47 46 48 48 46 43 43 48 52 56 59 58 58 67 78 77 67 66 71 73 73 71 68 65 63 64 65 67 69 70 70 67 63 56 50 44 43 46 48 46 43 41 42 42 40 37
38 41 41 39 37 35 32 32 32 33 34 34 35 37 41 44 46 46 46 47 49 52 53 53 53 56 58 59 58 57 57 58 59 58 56 53 52 55 53 46 43 46 48 47 44 44 49 52 55 58 59 63 72 80 80 73 70 72 74 73 72 70 66 64 64 66 69 71 71 69 66 61 54 48 47 47 48 47 44 43 44 45 44 41 38
36 40 41 39 36 34 34 33 33 34 35 35 36 39 43 45 46 46 48 49 51 53 53 52 55 57 58 58 60 62 61 61 61 60 58 54 50 51 50 46 43 45 49 50 46 45 49 53 55 60 64 68 73 76 75 73 72 73 74 73 72 71 69 67 66 67 71 74 72 67 65 60 53 49 48 47 44 43 42 42 43 44 42 39 36
33 37 39 37 34 33 35 35 36 37 38 38 39 41 44 46 47 47 49 51 54 54 54 55 56 57 56 57 61 64 64 63 61 60 59 55 52 54 54 48 45 46 51 52 48 47 52 56 59 63 66 71 75 72 69 71 72 73 73 72 72 73 73 71 70 72 76 76 71 67 64 60 54 52 50 45 42 42 41 41 41 40 38 36 35
31 33 35 35 33 32 34 37 40 41 43 42 41 43 45 47 48 49 51 54 54 55 56 57 57 55 55 58 61 63 64 63 60 58 56 54 57 64 63 55 48 47 51 54 51 51 58 62 65 67 69 73 76 72 71 72 73 73 73 73 73 74 74 73 73 74 75 71 66 64 62 59 57 55 50 44 42 42 42 42 42 39 38 38 40
31 31 32 32 32 32 33 38 41 44 45 44 44 45 47 48 50 51 54 55 56 56 58 58 56 56 57 59 60 62 63 61 59 57 56 58 63 67 64 58 54 52 53 54 52 54 61 67 69 70 71 73 71 71 73 75 74 74 73 72 72 71 72 75 75 73 70 67 64 63 62 62 60 54 47 43 44 44 44 44 42 41 41 42 46
30 30 31 31 32 33 34 37 41 44 46 47 46 47 48 50 52 54 56 57 58 59 59 58 57 58 60 61 62 63 62 60 58 57 58 61 65 65 62 59 57 55 56 54 52 55 62 68 70 70 71 71 70 71 76 76 74 74 73 71 69 69 72 77 77 72 68 66 63 62 63 64 59 50 44 45 46 45 44 43 43 45 46 46 49
29 30 30 31 32 34 35 37 39 43 47 49 49 49 50 51 54 56 57 57 58 59 58 57 59 60 62 63 63 63 61 59 57 57 59 61 62 61 62 60 58 58 57 55 53 56 62 68 71 70 70 70 70 71 73 72 73 74 73 69 68 70 76 78 73 69 67 65 63 64 65 62 54 47 47 47 46 46 46 47 48 49 49 49 50
30 30 31 31 33 35 37 38 40 44 48 51 51 50 51 53 56 57 57 57 58 57 56 58 61 62 64 65 65 64 62 59 58 58 57 58 58 59 59 58 56 57 56 54 53 57 64 71 72 70 69 71 70 69 70 71 73 73 71 70 71 74 76 72 67 67 68 65 65 66 63 56 49 47 48 47 47 49 50 51 50 49 49 50 51
31 32 33 33 35 37 38 40 42 45 48 50 50 50 52 55 56 57 57 57 57 56 57 59 61 63 65 66 66 65 62 60 59 56 54 55 55 54 54 51 51 53 54 52 55 62 68 71 71 71 72 72 70 69 71 72 71 70 71 75 75 73 71 69 68 69 67 65 65 63 56 50 47 48 49 48 49 52 53 51 50 51 52 52 50
34 34 36 36 38 40 41 41 44 46 48 48 49 51 53 55 57 57 58 58 57 57 58 60 61 63 65 67 68 66 62 60 58 55 53 54 53 51 50 48 48 51 52 54 60 68 69 69 70 72 72 71 70 71 72 71 69 69 72 75 73 70 69 70 69 67 64 63 61 56 51 49 47 47 48 50 52 52 53 53 54 56 55 52 49
36 36 38 39 41 43 43 45 47 48 48 48 50 53 55 56 56 55 55 54 54 54 57 60 62 64 67 70 69 65 60 58 56 55 54 54 51 49 50 50 50 52 54 56 63 68 68 68 71 73 74 73 73 74 75 73 70 70 71 73 71 70 70 68 65 62 60 58 56 53 50 49 48 48 50 51 51 52 53 55 57 57 54 51 50
37 38 40 43 45 46 46 48 50 50 50 51 53 54 54 52 51 49 49 50 53 57 60 61 62 63 65 67 66 62 58 56 56 55 56 53 51 51 53 54 53 54 55 58 63 67 69 71 74 77 78 78 76 77 77 73 67 66 68 69 69 67 65 61 58 56 55 55 54 52 49 48 50 52 52 50 49 51 52 54 55 54 52 51 51
39 40 42 45 48 48 48 50 52 52 53 54 53 51 49 48 47 47 49 52 57 62 62 61 62 62 62 63 62 59 57 55 55 56 55 53 52 53 56 56 54 53 56 60 64 67 69 71 74 76 77 78 80 80 76 69 65 65 66 67 65 61 57 55 54 54 55 55 52 47 46 49 51 49 47 47 48 50 52 51 51 50 50 50 49
41 42 45 48 50 50 51 54 55 57 56 54 51 50 50 49 49 51 55 59 62 63 62 62 62 61 61 61 59 57 56 54 55 56 56 54 55 56 57 56 54 55 59 64 67 68 67 67 69 72 75 78 79 76 70 67 67 67 67 65 62 57 54 54 56 56 55 52 48 47 48 50 49 46 46 48 50 52 52 50 49 50 50 51 51
44 46 47 49 50 52 55 58 60 60 58 55 53 52 51 51 53 57 60 62 62 61 62 63 62 61 60 59 57 56 56 57 57 58 56 56 57 57 56 56 58 59 61 63 64 64 64 66 68 71 73 75 73 70 67 66 66 65 63 61 58 56 56 57 57 55 52 49 48 49 51 51 49 50 51 53 54 56 54 51 51 53 54 55 54
46 49 51 52 53 56 60 62 63 62 59 56 55 54 53 55 58 60 61 61 60 59 61 62 61 59 59 58 57 57 59 61 61 59 58 58 57 57 56 58 58 58 58 60 62 64 66 67 68 70 71 72 69 67 65 63 61 60 58 57 57 58 58 56 54 51 50 49 51 52 53 53 53 53 54 56 58 56 52 50 53 56 55 54 51
52 57 60 58 57 60 64 64 63 61 58 56 56 57 59 60 60 60 60 60 59 60 61 61 60 58 58 59 59 59 62 63 62 58 58 58 57 57 57 57 56 57 59 63 66 68 67 67 67 67 68 67 64 62 60 59 57 57 57 57 58 58 56 53 52 52 52 52 52 52 52 52 53 53 53 54 54 50 47 48 51 53 51 49 46
61 64 65 63 61 63 64 63 61 59 57 58 60 61 61 60 59 58 58 59 60 61 63 62 61 60 59 58 58 60 62 62 60 58 57 58 57 57 57 56 55 57 62 65 67 67 64 63 63 64 64 61 59 58 57 55 56 57 58 58 58 57 55 53 52 52 53 53 51 49 49 50 50 49 48 48 47 46 47 49 50 49 47 45 41
67 66 65 63 63 62 60 59 58 58 58 59 60 60 60 60 59 58 59 61 63 64 63 63 64 64 63 60 61 63 62 60 59 58 58 60 59 58 57 56 56 59 64 65 64 63 62 61 61 60 58 57 56 56 56 57 58 58 57 56 56 56 54 53 51 50 50 49 47 45 45 46 46 46 46 44 43 45 48 48 46 44 43 41 39
73 67 61 60 60 59 58 58 58 59 60 59 58 58 59 60 62 63 64 65 64 62 62 63 63 63 60 59 62 63 62 59 58 58 58 59 59 56 55 55 58 61 62 60 60 61 62 60 59 57 56 56 57 58 60 62 60 57 55 55 56 54 51 49 48 47 45 43 42 41 42 43 44 46 45 43 43 46 47 43 39 38 38 38 37
68 63 59 58 58 57 56 57 57 57 58 59 59 58 58 59 64 67 68 67 64 63 63 62 59 57 54 55 58 60 59 58 58 57 57 55 53 52 52 53 54 56 56 57 59 61 59 57 57 59 59 59 60 61 62 62 59 55 53 53 52 48 47 46 45 44 43 42 41 41 42 43 44 45 44 43 43 43 41 37 35 35 35 34 34
60 59 58 58 57 56 55 54 54 55 57 59 61 60 59 60 62 64 66 67 65 62 58 58 57 54 50 51 54 56 57 58 58 57 55 54 53 53 52 51 50 52 53 55 56 56 55 56 60 63 61 61 62 63 63 61 58 54 50 47 44 43 44 43 42 42 42 41 41 41 42 42 43 44 44 43 42 39 37 34 33 31 31 31 31
56 55 54 53 54 54 53 54 56 57 58 60 62 64 65 65 63 61 62 63 62 57 55 56 54 49 45 47 52 55 55 56 56 58 59 58 58 56 52 49 49 49 50 51 52 53 56 61 65 64 62 62 64 64 62 58 53 49 46 43 42 42 41 40 40 40 39 38 38 37 38 38 40 41 42 40 39 37 34 31 29 28 29 29 30
56 55 53 53 53 54 54 56 58 59 60 63 66 68 69 67 62 59 59 58 55 53 54 53 49 44 43 46 50 53 53 52 55 61 64 62 58 53 49 48 47 47 48 50 52 56 62 67 67 65 63 63 63 61 56 50 45 42 41 41 41 41 40 39 38 38 37 36 35 34 34 35 36 37 38 37 36 34 30 28 27 27 27 28 30
59 57 55 54 55 56 56 58 60 61 63 66 67 66 65 62 58 57 57 55 52 51 51 48 45 43 42 44 46 48 50 51 54 59 61 58 53 50 47 45 45 47 49 53 56 62 67 68 66 63 61 60 59 54 48 43 40 38 38 38 38 37 37 36 36 36 36 35 34 33 33 32 32 34 35 34 32 29 26 25 26 27 27 28 28
58 57 56 57 57 56 56 58 60 61 62 63 62 60 58 57 55 55 57 55 53 51 49 46 45 44 43 44 44 46 49 51 51 53 53 51 47 45 43 43 45 49 52 55 60 64 65 63 62 61 59 57 52 46 40 37 35 35 34 34 33 33 34 34 35 35 34 34 32 31 30 30 31 32 32 30 28 26 24 24 25 26 26 26 25
56 57 57 57 58 58 58 59 60 60 59 58 57 56 56 55 55 57 57 55 52 50 48 47 46 46 44 45 46 47 48 48 47 45 44 43 41 41 41 42 45 49 54 58 61 63 62 60 59 58 55 50 45 39 36 34 32 32 31 30 30 31 32 33 34 34 33 33 31 29 28 29 30 30 28 26 25 23 22 22 24 25 25 24 24
56 57 56 54 56 58 58 57 58 58 56 54 53 54 54 56 57 57 55 51 48 47 47 47 48 48 48 47 48 47 47 45 42 40 39 38 39 40 41 43 46 51 55 58 61 62 61 58 56 53 49 44 39 35 32 30 29 28 28 28 29 30 32 33 33 33 33 31 29 27 26 28 28 27 25 23 21 20 20 23 24 24 22 22 23
59 58 58 59 61 63 61 58 57 57 55 54 54 54 55 56 56 55 50 45 43 44 44 43 44 47 49 49 49 48 47 44 40 38 37 37 39 41 43 47 51 53 54 56 59 61 59 55 50 47 42 37 33 30 28 26 27 26 26 27 29 30 31 32 31 30 29 27 25 24 24 25 26 25 22 19 16 17 20 22 22 21 22 22 23
63 62 63 66 67 66 64 64 63 60 58 57 56 56 55 53 49 46 43 41 43 44 43 41 43 46 48 48 48 49 48 44 40 39 39 41 43 45 47 50 53 54 54 56 58 57 53 49 45 41 37 32 28 25 25 24 25 26 27 27 28 28 29 30 29 28 25 25 24 25 25 25 24 22 19 15 13 16 20 21 20 21 22 23 24
68 68 69 70 71 70 68 67 66 63 61 60 59 58 55 52 50 48 47 49 54 57 54 51 51 51 49 47 49 50 49 45 43 44 45 46 46 47 48 50 54 56 57 57 55 51 48 45 42 37 32 28 25 23 23 23 24 25 26 26 26 26 28 29 28 26 23 23 24 25 25 24 22 19 14 11 11 15 18 18 20 22 24 24 25
73 71 69 68 70 70 70 68 65 62 60 61 61 58 56 56 58 57 53 53 57 61 60 56 54 52 49 48 49 50 48 47 47 47 47 47 47 47 48 50 52 55 55 53 51 47 45 41 36 32 27 23 22 21 22 23 23 24 25 25 25 26 27 28 28 25 23 23 24 24 24 23 19 15 11 9 10 13 15 17 20 23 24 25 25
77 73 70 70 72 73 71 69 67 64 62 64 66 66 67 68 68 65 60 56 56 56 55 52 49 48 47 47 47 48 48 48 47 47 48 49 49 49 49 50 51 51 50 48 46 43 38 33 28 24 22 21 21 21 22 22 22 23 24 25 25 26 27 27 26 24 22 22 22 22 22 20 15 11 9 9 11 14 17 18 20 23 25 25 23
80 74 70 69 71 70 70 71 69 66 64 65 69 72 73 73 73 72 69 64 57 52 48 46 46 47 48 49 49 49 49 48 48 48 50 50 48 47 48 48 50 48 47 44 41 37 32 27 24 22 21 21 21 21 22 22 23 23 24 24 25 26 24 25 23 22 20 21 21 20 17 14 12 10 10 10 12 16 17 17 20 24 25 23 21
81 81 76 73 72 70 71 72 72 69 68 69 73 76 73 68 65 65 63 58 52 48 47 47 48 50 51 51 53 54 53 51 50 50 50 49 47 46 46 48 48 48 45 42 38 32 27 24 23 22 21 21 22 22 22 22 23 23 23 25 27 25 21 21 22 22 20 19 18 15 13 12 11 12 11 10 12 14 16 18 23 24 22 20 20
71 75 74 72 73 74 74 73 74 75 74 71 71 69 65 60 56 56 53 49 47 47 49 51 52 52 52 53 55 56 55 53 50 49 50 49 48 48 49 48 47 45 42 38 32 26 24 23 23 22 22 22 22 21 22 22 23 23 24 25 25 22 18 18 19 19 17 15 13 12 11 11 12 12 13 12 12 14 18 22 24 22 19 19 21
55 57 58 58 62 66 66 64 65 68 67 62 59 57 55 54 53 51 49 47 46 49 53 55 54 54 54 55 54 53 53 53 51 51 52 53 51 50 49 48 45 43 39 35 29 25 23 24 23 23 23 24 23 22 23 22 22 23 24 22 19 17 18 19 19 17 15 13 11 11 11 11 12 12 13 13 14 17 22 25 23 19 18 20 21
50 48 48 51 54 59 63 64 65 65 61 57 56 56 56 55 52 51 51 52 54 56 58 57 55 53 53 51 50 48 49 50 50 50 53 54 53 50 49 48 47 43 40 34 30 27 25 24 24 23 23 23 24 23 23 23 23 24 24 20 16 16 18 19 18 16 13 11 10 10 9 10 12 13 14 14 17 21 24 24 20 18 19 21 21
63 58 58 61 63 64 66 69 71 68 63 57 57 57 57 55 53 54 56 56 57 58 59 57 54 52 50 48 47 46 45 44 44 43 45 47 49 49 50 48 45 41 38 33 29 25 24 24 24 23 23 25 25 25 24 23 23 24 23 19 17 18 19 18 16 14 12 11 10 9 9 9 11 12 14 16 19 22 23 21 19 19 21 22 21
68 64 67 71 70 65 63 62 60 59 58 57 57 59 59 57 57 58 59 58 57 57 57 54 50 47 46 46 45 44 41 39 38 37 36 37 40 43 45 43 38 36 34 30 25 23 23 25 24 24 24 24 26 26 26 25 23 23 23 22 21 22 23 22 18 14 12 11 10 10 9 9 10 11 14 16 19 21 22 22 22 22 22 23 22